Weather History for Wink, TX

Change the Weather History Date:

Thursday, September 18, 2014

  Actual Average Record
Temperature  
Mean Temperature 76 °F -  
Max Temperature 86 °F 88 °F 107 °F (2005)
Min Temperature 69 °F 61 °F 44 °F (1951)
Cooling Degree Days 12    
Growing Degree Days 26 (Base 50)    
Moisture  
Dew Point 68 °F    
Average Humidity 78    
Maximum Humidity 93    
Minimum Humidity 55    
Precipitation  
Precipitation 0.01 in - - ()
Sea Level Pressure  
Sea Level Pressure 29.84 in    
Wind  
Wind Speed 11 mph (ENE)    
Max Wind Speed 20 mph    
Max Gust Speed 30 mph    
Visibility 10 miles    
Events Rain , Thunderstorm    
Averages and records for this station are not official NWS values.
T = Trace of Precipitation, MM = Missing Value Source: NWS Daily Summary

Daily Weather History Graph

Daily Weather History Graph

Search for Another Location

Airport:

Trip Planner

Search our weather history database for the weather conditions in past years. The results will help you decide how hot, cold, wet, or windy it might be!

Date:

Astronomy

Sep. 18, 2014 Rise Set
Actual Time 7:38 AM CDT 7:54 PM CDT
Civil Twilight 7:14 AM CDT 8:18 PM CDT
Nautical Twilight 6:45 AM CDT 8:47 PM CDT
Astronomical Twilight 6:16 AM CDT 9:16 PM CDT
Moon 2:46 AM CDT (9/18) 4:34 PM CDT (9/18)
Length of Visible Light 13h 04m
Length of Day
12h 15m
Waning Crescent, 26% of the Moon is Illuminated
Sep 18
Waning Crescent
Sep 24
New
Oct 1
First Quarter
Oct 8
Full
Oct 15
Last Quarter

Hourly Weather History & Observations

Time (CDT) Temp. Heat Index Dew Point Humidity Pressure Visibility Wind Dir Wind Speed Gust Speed Precip Events Conditions
12:53 AM 73.9 °F - 68.0 °F 82% 29.81 in 10.0 mi ENE 15.0 mph - N/A   Clear
1:53 AM 73.9 °F - 66.9 °F 79% 29.80 in 10.0 mi East 13.8 mph - N/A   Clear
2:53 AM 73.0 °F - 66.9 °F 81% 29.80 in 10.0 mi East 12.7 mph - N/A   Clear
3:53 AM 73.4 °F - 68.0 °F 83% 29.92 in 10.0 mi ESE 8.1 mph - N/A   Clear
4:53 AM 73.9 °F - 68.0 °F 82% 29.78 in 10.0 mi ESE 4.6 mph - N/A   Mostly Cloudy
5:53 AM 72.0 °F - 70.0 °F 93% 29.79 in 10.0 mi NW 5.8 mph - 0.01 in Rain Light Rain
6:53 AM 70.0 °F - 68.0 °F 93% 29.81 in 10.0 mi NW 10.4 mph - 0.00 in Rain Light Rain
7:38 AM 69.1 °F - 66.9 °F 93% 29.94 in 10.0 mi North 9.2 mph - 0.00 in Rain Light Rain
7:53 AM 69.1 °F - 66.9 °F 93% 29.81 in 10.0 mi North 10.4 mph - 0.00 in   Overcast
8:53 AM 70.0 °F - 68.0 °F 93% 29.82 in 10.0 mi NNE 9.2 mph - N/A   Overcast
9:06 AM 71.1 °F - 68.0 °F 90% 29.95 in 10.0 mi NE 9.2 mph - N/A   Mostly Cloudy
9:53 AM 73.0 °F - 68.0 °F 84% 29.81 in 10.0 mi NNE 5.8 mph - N/A   Clear
10:53 AM 75.9 °F - 69.1 °F 79% 29.81 in 10.0 mi Calm Calm - 0.00 in Rain Light Rain
11:06 AM 75.9 °F - 69.1 °F 79% 29.95 in 10.0 mi Calm Calm - 0.00 in   Overcast
11:53 AM 78.1 °F - 69.1 °F 74% 29.81 in 10.0 mi SE 8.1 mph - 0.00 in   Overcast
12:53 PM 80.1 °F 82.9 °F 69.1 °F 69% 29.81 in 10.0 mi East 5.8 mph - N/A   Overcast
1:13 PM 82.0 °F 85.5 °F 69.1 °F 65% 29.93 in 10.0 mi East 5.8 mph - N/A   Overcast
1:53 PM 84.0 °F 87.0 °F 68.0 °F 58% 29.78 in 10.0 mi East 9.2 mph - N/A   Scattered Clouds
2:53 PM 84.9 °F 87.6 °F 66.9 °F 55% 29.75 in 10.0 mi Variable 5.8 mph - N/A   Mostly Cloudy
3:49 PM 84.2 °F 88.4 °F 69.8 °F 62% 29.86 in 10.0 mi ENE 10.4 mph - N/A Thunderstorm Overcast
3:53 PM 84.0 °F 87.8 °F 69.1 °F 61% 29.73 in 10.0 mi NE 9.2 mph - N/A Thunderstorm Overcast
4:00 PM 82.9 °F 86.5 °F 69.1 °F 63% 29.87 in 10.0 mi ENE 17.3 mph 21.9 mph N/A Thunderstorm Overcast
4:11 PM 80.1 °F 82.9 °F 69.1 °F 69% 29.87 in 10.0 mi NE 19.6 mph - N/A Thunderstorm Thunderstorm
4:25 PM 79.0 °F - 68.0 °F 69% 29.86 in 10.0 mi ENE 15.0 mph - N/A Thunderstorm Overcast
4:53 PM 77.0 °F - 66.0 °F 69% 29.74 in 10.0 mi NE 13.8 mph - N/A Thunderstorm Overcast
5:25 PM 78.1 °F - 64.9 °F 64% 29.88 in 10.0 mi ENE 16.1 mph 23.0 mph N/A   Mostly Cloudy
5:41 PM 77.0 °F - 66.9 °F 71% 29.88 in 10.0 mi NE 13.8 mph - N/A Thunderstorm Thunderstorm
5:53 PM 77.0 °F - 69.1 °F 76% 29.75 in 10.0 mi ENE 12.7 mph 21.9 mph N/A   Mostly Cloudy
6:53 PM 77.0 °F - 69.1 °F 76% 29.75 in 10.0 mi ENE 13.8 mph - N/A   Scattered Clouds
7:46 PM 72.0 °F - 64.9 °F 78% 29.92 in 10.0 mi SSE 16.1 mph 29.9 mph N/A   Overcast
7:53 PM 71.1 °F - 64.9 °F 81% 29.81 in 10.0 mi SSE 17.3 mph 25.3 mph N/A   Overcast
8:00 PM 72.0 °F - 66.0 °F 81% 29.91 in 10.0 mi SE 11.5 mph 25.3 mph N/A   Overcast
8:23 PM 73.0 °F - 66.9 °F 81% 29.92 in 10.0 mi SSE 10.4 mph - N/A   Mostly Cloudy
8:53 PM 72.0 °F - 68.0 °F 87% 29.81 in 10.0 mi East 11.5 mph - N/A   Scattered Clouds
9:53 PM 73.0 °F - 68.0 °F 84% 29.81 in 10.0 mi East 13.8 mph - N/A   Clear
10:53 PM 73.0 °F - 69.1 °F 87% 29.82 in 10.0 mi East 11.5 mph - N/A   Mostly Cloudy
11:03 PM 73.0 °F - 69.1 °F 87% 29.94 in 10.0 mi East 9.2 mph - N/A   Mostly Cloudy
11:53 PM 73.0 °F - 69.1 °F 87% 29.82 in 10.0 mi ESE 15.0 mph - N/A   Overcast